ROMMA est une association bénévole à but non lucratif. Votre soutien est indispensable : ADHERER à ROMMA ou FAIRE un DON

Voiron - (38, Isère)

Voironnais (300 m)   Longitude: 05° 35' E   Latitude: 45° 23' N Station partenaire n°109
 

Détail journalier du     <<     >>

Température Precipitation Humidité Pression Vent Dir Rafale Dir. rafale Ensol.
Heure (°C) (mm) (%) (hPa) (km/h) (km/h) (min)
01:00 16.6085101903NNO0
02:00 15.9087101905NNO0
03:00 15.4088101903NNO0
04:00 14.8090101903NNO0
05:00 14.4089101905NNO0
06:00 14.109010192NO5NNO0
07:00 14.908910191NO5NO0
08:00 17.907810192N6NNO60
09:00 18.907710192N8SSE60
10:00 20.107110186S13SSO60
11:00 21.806810186SSE13SSE60
12:00 23.006610186S15S60
13:00 24.206310174SSO13S60
14:00 25.505910176OSO21NO60
15:00 26.305610176NO18NNO60
16:00 27.405310167NNO19N60
17:00 27.905110168N21NNO60
18:00 28.304810157N16NNO60
19:00 28.304910167N19NNO60
20:00 28.605010165N15N60
21:00 25.006010168N31S60
22:00 23.3064101610SSE29S0
23:00 21.407310166SSE18SE0
minuit 20.907510173SSO13S0

Graphique du 17-06-2019

 

Serveur OMMA